Location: Eimen
(51.8766°N, 9.7806°E)
Time: 11:10:41
(UTC+00:00)

CZ-2D R/B - Pass Details

Date: 23 May 2024
Orbit: 790 x 843 km, 98.8° (Epoch: 23 June)

Event Time Altitude Azimuth Distance (km) Brightness Sun altitude
Rises 01:49:33 0° 14° (NNE) 3,416 6.8 -10.3°
Reaches altitude 10° 01:51:55 10° 13° (NNE) 2,475 5.8 -10.0°
Maximum altitude 01:57:25 75° 289° (WNW) 875 2.3 -9.5°
Enters shadow 02:02:44 10° 205° (SSW) 2,410 3.9 -9.0°
